When you browse on this site, cookies collect data to enhance your experience and personalize the content and advertising you see.
Visit our Privacy Policy to learn more. By continuing to use the site, you agree to this use of cookies and data.
EN

Hourly Weather Kamarang

Today, 6 July, Monday

Time Temperature Precipitation Wind Pressure Humidity
00:00 +21°C° 1.5 mm 0 mps 712 mmHg 99%
01:00 +21°C° 1.5 mm 0 mps 712 mmHg 99%
02:00 +20°C° 1.5 mm 0 mps 712 mmHg 99%
03:00 +20°C° 0.9 mm 0 mps 712 mmHg 99%
04:00 +20°C° 0.9 mm 0 mps 712 mmHg 99%
05:00 +20°C° 0.9 mm 0 mps 712 mmHg 99%
06:00 +21°C° 0.3 mm 0 mps 712 mmHg 98%
07:00 +21°C° 0.3 mm 0 mps 713 mmHg 97%
08:00 +22°C° 0.3 mm 0 mps 713 mmHg 95%
09:00 +23°C° 0.3 mm 0 mps 713 mmHg 92%
10:00 +24°C° 0.3 mm 0 mps 713 mmHg 89%
11:00 +24°C° 0.3 mm 0 mps 713 mmHg 86%
12:00 +26°C° 0.3 mm 0 mps 713 mmHg 79%
13:00 +27°C° 0.3 mm 0 mps 712 mmHg 72%
14:00 +31°C° 0.3 mm 1 mps 712 mmHg 66%
15:00 +29°C° 2.2 mm 1 mps 712 mmHg 76%
16:00 +27°C° 2.2 mm 1 mps 711 mmHg 86%
17:00 +23°C° 2.2 mm 0 mps 711 mmHg 97%
18:00 +24°C° 1 mm 1 mps 711 mmHg 97%
19:00 +24°C° 1 mm 1 mps 712 mmHg 97%
20:00 +23°C° 1 mm 1 mps 712 mmHg 98%
21:00 +23°C° 0.1 mm 1 mps 712 mmHg 98%
22:00 +21°C° 0.1 mm 0 mps 713 mmHg 99%
23:00 +21°C° 0.1 mm 0 mps 713 mmHg 99%

Tomorrow, 7 July, Tuesday

Time Temperature Precipitation Wind Pressure Humidity
00:00 +20°C° 0 mm 0 mps 713 mmHg 99%
01:00 +20°C° 0 mm 0 mps 712 mmHg 99%
02:00 +20°C° 0 mm 0 mps 712 mmHg 99%
03:00 +20°C° 0 mm 0 mps 712 mmHg 99%
04:00 +20°C° 0 mm 0 mps 712 mmHg 99%
05:00 +20°C° 0 mm 0 mps 712 mmHg 99%
06:00 +20°C° 0 mm 0 mps 712 mmHg 98%
07:00 +21°C° 0 mm 0 mps 713 mmHg 98%
08:00 +21°C° 0 mm 0 mps 713 mmHg 97%
09:00 +24°C° 0.1 mm 0 mps 713 mmHg 84%
10:00 +26°C° 0.1 mm 0 mps 714 mmHg 71%
11:00 +31°C° 0.1 mm 1 mps 714 mmHg 58%
12:00 +30°C° 0.4 mm 1 mps 713 mmHg 65%
13:00 +29°C° 0.4 mm 1 mps 712 mmHg 71%
14:00 +29°C° 0.4 mm 1 mps 712 mmHg 77%
15:00 +28°C° 0.7 mm 1 mps 711 mmHg 82%
16:00 +27°C° 0.7 mm 1 mps 711 mmHg 86%
17:00 +27°C° 0.7 mm 1 mps 711 mmHg 90%
18:00 +25°C° 0.4 mm 1 mps 711 mmHg 93%
19:00 +24°C° 0.4 mm 1 mps 712 mmHg 96%
20:00 +20°C° 0.4 mm 0 mps 712 mmHg 98%
21:00 +20°C° 0 mm 0 mps 713 mmHg 99%
22:00 +20°C° 0 mm 0 mps 713 mmHg 99%
23:00 +20°C° 0 mm 0 mps 713 mmHg 99%

Day after tomorrow, 8 July, Wednesday

Time Temperature Precipitation Wind Pressure Humidity
00:00 +20°C° 0 mm 0 mps 713 mmHg 99%
01:00 +20°C° 0 mm 0 mps 712 mmHg 99%
02:00 +20°C° 0 mm 0 mps 712 mmHg 99%
03:00 +20°C° 0 mm 0 mps 712 mmHg 99%
04:00 +20°C° 0 mm 0 mps 712 mmHg 99%
05:00 +20°C° 0 mm 0 mps 712 mmHg 99%
06:00 +21°C° 0 mm 0 mps 712 mmHg 97%
07:00 +21°C° 0 mm 0 mps 713 mmHg 94%
08:00 +22°C° 0 mm 0 mps 713 mmHg 92%
09:00 +24°C° 0 mm 0 mps 713 mmHg 77%
10:00 +29°C° 0 mm 1 mps 714 mmHg 62%
11:00 +31°C° 0 mm 1 mps 714 mmHg 47%
12:00 +31°C° 0 mm 1 mps 713 mmHg 46%
13:00 +32°C° 0 mm 2 mps 712 mmHg 45%
14:00 +32°C° 0 mm 2 mps 712 mmHg 43%
15:00 +31°C° 0 mm 2 mps 711 mmHg 49%
16:00 +30°C° 0 mm 2 mps 711 mmHg 55%
17:00 +29°C° 0 mm 2 mps 711 mmHg 61%
18:00 +27°C° 0.2 mm 1 mps 711 mmHg 73%
19:00 +25°C° 0.2 mm 1 mps 711 mmHg 85%
20:00 +23°C° 0.2 mm 1 mps 712 mmHg 97%
21:00 +20°C° 0 mm 0 mps 712 mmHg 98%
22:00 +20°C° 0 mm 0 mps 712 mmHg 98%
23:00 +20°C° 0 mm 0 mps 713 mmHg 99%

9 July, Thursday

Time Temperature Precipitation Wind Pressure Humidity
00:00 +20°C° 0 mm 0 mps 712 mmHg 99%
01:00 +19°C° 0 mm 0 mps 712 mmHg 99%
02:00 +19°C° 0 mm 0 mps 712 mmHg 99%
03:00 +19°C° 0 mm 0 mps 712 mmHg 99%
04:00 +19°C° 0 mm 0 mps 712 mmHg 99%
05:00 +19°C° 0 mm 0 mps 712 mmHg 99%
06:00 +20°C° 0 mm 0 mps 712 mmHg 96%
07:00 +21°C° 0 mm 0 mps 713 mmHg 94%
08:00 +22°C° 0 mm 0 mps 713 mmHg 91%
09:00 +24°C° 0 mm 0 mps 713 mmHg 80%
10:00 +26°C° 0 mm 0 mps 713 mmHg 68%
11:00 +28°C° 0 mm 0 mps 713 mmHg 56%
12:00 +31°C° 0 mm 1 mps 713 mmHg 50%
13:00 +32°C° 0 mm 1 mps 712 mmHg 44%
14:00 +33°C° 0 mm 1 mps 711 mmHg 38%
15:00 +32°C° 0 mm 1 mps 711 mmHg 43%
16:00 +31°C° 0 mm 1 mps 711 mmHg 48%
17:00 +30°C° 0 mm 2 mps 710 mmHg 52%
18:00 +28°C° 0.3 mm 1 mps 711 mmHg 66%
19:00 +25°C° 0.3 mm 1 mps 711 mmHg 79%
20:00 +23°C° 0.3 mm 1 mps 712 mmHg 92%
21:00 +21°C° 0.1 mm 0 mps 712 mmHg 94%
22:00 +20°C° 0.1 mm 0 mps 713 mmHg 96%
23:00 +20°C° 0.1 mm 0 mps 713 mmHg 98%

10 July, Friday

Time Temperature Precipitation Wind Pressure Humidity
00:00 +20°C° 0 mm 0 mps 713 mmHg 99%
01:00 +20°C° 0 mm 0 mps 712 mmHg 99%
02:00 +20°C° 0 mm 0 mps 712 mmHg 99%
03:00 +20°C° 0 mm 0 mps 712 mmHg 99%
04:00 +20°C° 0 mm 0 mps 712 mmHg 99%
05:00 +19°C° 0 mm 0 mps 712 mmHg 99%
06:00 +20°C° 0 mm 0 mps 713 mmHg 96%
07:00 +22°C° 0 mm 0 mps 713 mmHg 93%
08:00 +23°C° 0 mm 0 mps 714 mmHg 91%
09:00 +25°C° 0 mm 0 mps 714 mmHg 79%
10:00 +27°C° 0 mm 0 mps 714 mmHg 67%
11:00 +32°C° 0 mm 1 mps 714 mmHg 56%
12:00 +32°C° 0.3 mm 1 mps 713 mmHg 56%
13:00 +32°C° 0.3 mm 1 mps 712 mmHg 56%
14:00 +32°C° 0.3 mm 1 mps 712 mmHg 55%
15:00 +30°C° 1.3 mm 1 mps 711 mmHg 68%
16:00 +29°C° 1.3 mm 1 mps 711 mmHg 80%
17:00 +27°C° 1.3 mm 1 mps 711 mmHg 93%
18:00 +26°C° 2.2 mm 1 mps 711 mmHg 94%
19:00 +23°C° 2.2 mm 0 mps 712 mmHg 95%
20:00 +22°C° 2.2 mm 0 mps 712 mmHg 96%
21:00 +21°C° 1.4 mm 0 mps 712 mmHg 97%
22:00 +21°C° 1.4 mm 0 mps 713 mmHg 97%
23:00 +21°C° 1.4 mm 0 mps 713 mmHg 98%

11 July, Saturday

Time Temperature Precipitation Wind Pressure Humidity
00:00 +21°C° 0.5 mm 0 mps 713 mmHg 98%
01:00 +20°C° 0.5 mm 0 mps 712 mmHg 98%
02:00 +20°C° 0.5 mm 0 mps 711 mmHg 99%
03:00 +20°C° 0 mm 0 mps 712 mmHg 99%
04:00 +20°C° 0 mm 0 mps 712 mmHg 99%
05:00 +20°C° 0 mm 0 mps 712 mmHg 99%
06:00 +20°C° 0 mm 0 mps 712 mmHg 98%
07:00 +21°C° 0 mm 0 mps 713 mmHg 96%
08:00 +22°C° 0 mm 0 mps 713 mmHg 95%
09:00 +24°C° 0.6 mm 0 mps 713 mmHg 90%
10:00 +25°C° 0.6 mm 0 mps 713 mmHg 84%
11:00 +26°C° 0.6 mm 0 mps 713 mmHg 79%
12:00 +28°C° 1.6 mm 1 mps 712 mmHg 82%
13:00 +28°C° 1.6 mm 1 mps 712 mmHg 85%
14:00 +28°C° 1.6 mm 1 mps 711 mmHg 87%
15:00 +27°C° 1.2 mm 1 mps 711 mmHg 89%
16:00 +25°C° 1.2 mm 0 mps 711 mmHg 91%
17:00 +24°C° 1.2 mm 0 mps 711 mmHg 93%
18:00 +23°C° 0.8 mm 0 mps 711 mmHg 95%
19:00 +22°C° 0.8 mm 0 mps 711 mmHg 96%
20:00 +21°C° 0.8 mm 0 mps 712 mmHg 97%
21:00 +21°C° 0.1 mm 0 mps 712 mmHg 98%
22:00 +21°C° 0.1 mm 0 mps 712 mmHg 98%
23:00 +20°C° 0.1 mm 0 mps 713 mmHg 98%
Show more